Location: Rancho Del Sol Observatory
(38.7214°N, 120.6350°W)
Time: 21:23:35
(UTC-08:00)

A-11 Canister half - Pass Details

Date: 05 February 2020
Orbit: 1517 x 1683 km, 47.2° (Epoch: 17 February)

Event Time Altitude Azimuth Distance (km) Brightness Sun altitude
Rises 02:39:57 0° 300° (WNW) 4,696 - -51.3°
Reaches altitude 10° 02:43:01 10° 299° (WNW) 3,699 - -50.7°
Maximum altitude 02:52:17 77° 216° (SW) 1,551 - -49.1°
Exits shadow 02:59:16 20° 133° (SE) 2,976 10.6 -47.8°
Drops below altitude 10° 03:01:30 10° 132° (SE) 3,681 11.2 -47.4°
Sets 03:04:33 0° 131° (SE) 4,673 11.8 -46.9°
